Location: Unspecified
(0.0000°N, 0.0000°E)
Time: 02:58:09
(UTC+00:00)

Oscar 18 - Visible Passes

Search period start: 25 July 2024 00:00
Search period end: 04 August 2024 00:00
Orbit: 771 x 789 km, 98.9° (Epoch: 24 July)

Date Brightness Start Highest point End Pass type
(mag) Time Alt. Az. Time Alt. Az. Time Alt. Az.
25 Jul 12.4 04:46:05 10° NE 04:50:35 31° ESE 04:55:06 10° SSE visible
26 Jul 13.5 04:16:15 10° E 04:18:18 12° ESE 04:20:20 10° SE visible
26 Jul 13.4 18:27:45 10° SW 18:30:40 15° WSW 18:33:34 10° WNW visible
27 Jul 10.7 05:19:46 10° NNE 05:24:55 83° ESE 05:30:05 10° S visible
28 Jul 12.3 04:48:02 10° NE 04:52:35 32° ESE 04:57:10 10° SSE visible
29 Jul 13.4 04:18:02 10° ENE 04:20:18 13° ESE 04:22:36 10° SE visible
29 Jul 13.5 18:29:55 10° SW 18:32:40 15° WSW 18:35:25 10° WNW visible
30 Jul 10.7 05:21:46 10° NNE 05:26:55 86° ESE 05:32:06 10° SSW visible
31 Jul 12.3 04:50:00 10° NE 04:54:36 34° ESE 04:59:15 10° SSE visible
01 Aug 13.4 04:19:49 10° ENE 04:22:19 14° ESE 04:24:49 10° SE visible
01 Aug 13.5 18:32:06 10° SW 18:34:40 14° WSW 18:37:14 10° WNW visible
02 Aug 10.7 05:23:46 10° NNE 05:28:55 90° ESE 05:34:07 10° SSW visible
03 Aug 12.2 04:51:56 10° NE 04:56:36 35° ESE 05:01:18 10° SSE visible
